Weather History for Bennington, VT

Change the Weather History Date:

Thursday, January 24, 2013

  Actual Average Record
Temperature  
Mean Temperature 4 °F 21 °F  
Max Temperature 15 °F 31 °F 14 °F (2014)
Min Temperature -8 °F 11 °F -5 °F (2014)
Degree Days  
Heating Degree Days 61 44  
Month to date heating degree days 964 1052  
Since 1 July heating degree days 3409 3824  
Cooling Degree Days 0 0  
Month to date cooling degree days 0 0  
Year to date cooling degree days 0 0  
Moisture  
Dew Point -9 °F    
Average Humidity 60    
Maximum Humidity 82    
Minimum Humidity 38    
Precipitation  
Precipitation 0.00 in 0.07 in - ()
Month to date precipitation 0.44 2.21  
Year to date precipitation 0.44 2.21  
Sea Level Pressure  
Sea Level Pressure 30.23 in    
Wind  
Wind Speed 6 mph (West)    
Max Wind Speed 18 mph    
Max Gust Speed 31 mph    
Visibility 10 miles    
Events      
T = Trace of Precipitation, MM = Missing Value Source: NWS Daily Summary

Daily Weather History Graph

Daily Weather History Graph

Search for Another Location

Airport:

Trip Planner

Search our weather history database for the weather conditions in past years. The results will help you decide how hot, cold, wet, or windy it might be!

Date:

Astronomy

Jan. 24, 2013 Rise Set
Actual Time 7:15 AM EST 4:55 PM EST
Civil Twilight 6:44 AM EST 5:26 PM EST
Nautical Twilight 6:10 AM EST 6:00 PM EST
Astronomical Twilight 5:36 AM EST 6:34 PM EST
Moon 2:54 PM EST (1/24) 5:11 AM EST (1/24)
Length of Visible Light 10h 41m
Length of Day
9h 40m
Waxing Gibbous, 94% of the Moon is Illuminated
Jan 24
Waxing Gibbous
Jan 26
Full
Feb 3
Last Quarter
Feb 10
New
Feb 17
First Quarter

Hourly Weather History & Observations

Time (EST) Temp. Windchill Dew Point Humidity Pressure Visibility Wind Dir Wind Speed Gust Speed Precip Events Conditions
12:54 AM -2.9 °F -13.3 °F -9.9 °F 72% 30.15 in 10.0 mi SSW 4.6 mph - N/A   Clear
1:54 AM -4.0 °F - -9.0 °F 79% 30.16 in 10.0 mi Calm Calm - N/A   Clear
2:54 AM -5.1 °F - -9.9 °F 80% 30.15 in 10.0 mi Calm Calm - N/A   Clear
3:54 AM -5.1 °F - -11.0 °F 76% 30.14 in 10.0 mi Calm Calm - N/A   Clear
4:54 AM -6.0 °F - -11.9 °F 75% 30.15 in 10.0 mi Calm Calm - N/A   Clear
5:54 AM -6.0 °F - -13.0 °F 72% 30.17 in 10.0 mi Calm Calm - N/A   Clear
6:54 AM -8.0 °F - -13.0 °F 79% 30.19 in 10.0 mi Calm Calm - N/A   Clear
7:54 AM -6.0 °F - -9.9 °F 83% 30.20 in 10.0 mi Calm Calm - N/A   Clear
8:54 AM -0.0 °F - -7.1 °F 72% 30.22 in 9.0 mi Calm Calm - N/A   Clear
9:54 AM 3.0 °F -4.4 °F -7.1 °F 63% 30.23 in 10.0 mi Variable 3.5 mph - N/A   Clear
10:54 AM 6.1 °F -5.6 °F -6.0 °F 58% 30.22 in 10.0 mi NW 6.9 mph - N/A   Clear
11:54 AM 8.1 °F -4.3 °F -7.1 °F 50% 30.22 in 10.0 mi WNW 8.1 mph - N/A   Clear
12:54 PM 10.0 °F -3.7 °F -8.0 °F 44% 30.20 in 10.0 mi NW 10.4 mph - N/A   Clear
1:54 PM 12.9 °F 0.7 °F -7.1 °F 41% 30.18 in 10.0 mi WNW 9.2 mph 18.4 mph N/A   Clear
2:54 PM 14.0 °F 0.5 °F -7.1 °F 39% 30.19 in 10.0 mi West 11.5 mph 19.6 mph N/A   Clear
3:54 PM 12.9 °F -0.2 °F -9.0 °F 37% 30.21 in 10.0 mi West 10.4 mph 18.4 mph N/A   Clear
4:54 PM 10.0 °F -2.9 °F -9.0 °F 42% 30.23 in 10.0 mi WSW 9.2 mph - N/A   Clear
5:54 PM 8.1 °F -6.2 °F -7.1 °F 50% 30.27 in 10.0 mi West 10.4 mph 17.3 mph N/A   Clear
6:54 PM 8.1 °F -5.3 °F -7.1 °F 50% 30.30 in 10.0 mi West 9.2 mph 21.9 mph N/A   Clear
7:54 PM 7.0 °F -5.7 °F -8.0 °F 51% 30.32 in 10.0 mi WNW 8.1 mph - N/A   Clear
8:54 PM 7.0 °F -11.0 °F -8.0 °F 51% 30.31 in 10.0 mi West 16.1 mph 23.0 mph N/A   Partly Cloudy
9:54 PM 6.1 °F -9.5 °F -9.0 °F 50% 30.32 in 10.0 mi West 11.5 mph - N/A   Clear
10:54 PM 6.1 °F -6.8 °F -9.0 °F 50% 30.35 in 10.0 mi NW 8.1 mph - N/A   Clear
11:54 PM 5.0 °F -5.6 °F -9.0 °F 52% 30.35 in 10.0 mi West 5.8 mph - N/A   Clear